{"data":{"norad_id":40975,"intl_designator":"2015-058M","name":"SNAP-3 JIMI","alt_names":[],"object_type":"PAYLOAD","status":"ACTIVE","operator":null,"country":"US","launch_date":"2015-10-08","launch_site_code":"AFWTR","launch_vehicle":null,"mission":null,"orbit_class":"UNKNOWN","rcs_meters":null,"size_class":null,"mass_kg":null,"dimensions":null,"purposes":["tech_demo"],"wikipedia_slug":null,"has_3d_model":false,"image_url":null,"decayed_at":null,"tle_current":{"epoch":"2026-05-25T03:42:39.442752Z","epoch_age_seconds":54844,"freshness":"FRESH","line1":"1 40975U 15058M   26145.15462318  .00005325  00000+0  37149-3 0  9993","line2":"2 40975  64.7652 292.6321 0105253  64.9353 296.2645 15.02038806110760","mean_motion":15.02038806,"eccentricity":0.0105253,"inclination_deg":64.7652,"raan_deg":292.6321,"arg_perigee_deg":64.9353,"mean_anomaly_deg":296.2645,"bstar":0.00037149,"rev_number":11076,"period_min":95.869693529076,"perigee_km":487.57792320165,"apogee_km":633.64271754389,"semimajor_km":6938.7473203728,"source":"CELESTRAK","updated_at":"2026-05-25T13:38:25.527286Z"}}}